Theta_e
349 349 348 347 346 342 341 342 343 343 344 343 343 343 343 343 343 342 342 343 343 343 343 342 341 341 340 339 339 339 340 342 343 344 346 348 349 349 349 349 348 347 345 343 342 341 342 343 344 345 344 343 343 343 343 343 343 343 342 344 347 348 346
348 349 348 348 350 346 342 341 342 343 344 343 343 343 343 343 343 342 342 342 342 342 342 342 341 339 338 338 337 338 338 339 341 342 344 347 348 348 349 349 348 347 346 345 344 344 344 344 344 345 344 343 343 343 342 342 343 343 343 344 347 348 347
348 348 348 348 350 350 347 343 341 342 343 343 343 343 343 343 342 342 342 342 342 342 342 342 342 339 337 337 336 336 337 338 338 339 341 345 347 348 349 349 348 347 347 347 347 347 346 345 346 345 344 343 343 342 342 342 343 343 344 345 346 347 347
348 347 347 348 349 349 350 347 342 341 342 343 343 342 342 342 342 342 342 342 342 342 342 342 342 340 337 335 334 335 335 336 337 337 338 342 347 348 348 349 348 348 348 348 347 348 347 346 346 346 344 343 343 343 343 343 343 344 344 344 345 345 346
350 349 347 348 348 348 351 350 346 342 341 342 342 342 343 342 342 342 342 342 343 343 342 342 342 341 338 335 333 333 334 335 336 336 336 340 346 348 348 347 347 347 347 347 347 348 347 347 346 345 344 343 342 342 342 343 343 343 344 344 344 344 345
352 351 349 348 348 349 351 351 349 346 342 341 341 342 343 342 342 342 342 343 343 343 343 342 343 343 340 337 334 333 333 333 335 336 336 338 344 348 347 346 346 346 346 346 346 347 346 346 346 345 345 344 343 343 342 342 343 343 344 344 344 344 344
352 352 351 350 349 350 350 349 350 349 347 344 342 342 342 342 342 342 342 343 342 343 343 343 343 343 342 339 336 334 333 333 333 335 337 337 341 345 346 345 345 344 344 345 345 346 345 344 344 344 345 346 346 345 344 344 344 344 344 343 343 344 343
353 352 352 352 351 351 350 348 348 349 349 347 344 343 343 343 343 343 342 342 343 343 343 343 343 344 344 341 339 337 334 333 333 334 336 337 338 342 344 345 343 343 343 343 343 344 343 342 342 343 344 346 347 347 347 347 347 347 345 343 343 342 342
352 352 353 353 353 353 352 351 350 350 350 349 347 344 343 343 344 343 342 342 343 343 343 343 343 344 345 345 343 342 339 336 334 334 335 337 338 339 341 342 342 341 341 341 341 342 342 341 340 341 342 345 346 347 348 348 349 349 348 346 344 343 342
352 352 352 352 353 353 353 352 351 351 351 350 349 346 345 345 345 345 344 343 343 343 343 344 344 344 345 345 345 345 344 342 338 335 334 335 337 338 339 340 341 340 340 340 340 340 340 340 340 340 341 342 343 345 346 348 349 350 350 349 347 344 343
349 350 350 350 351 351 352 351 351 351 351 350 349 347 346 347 346 345 344 344 343 343 344 344 344 345 346 346 346 346 346 346 343 339 336 334 335 336 337 339 339 339 339 339 339 338 338 338 339 339 340 340 342 344 345 347 348 349 350 350 349 347 344
346 347 348 348 349 349 350 351 350 351 351 349 349 348 348 347 346 345 344 345 345 345 346 346 345 346 347 347 348 348 347 347 346 344 340 336 335 334 335 337 338 338 338 338 338 336 336 336 338 339 339 339 341 344 345 347 347 348 348 348 348 348 346
345 346 346 347 347 346 347 349 350 350 349 348 348 348 349 348 347 346 346 347 348 348 348 348 347 346 346 347 349 349 349 348 347 348 345 341 338 336 336 336 336 337 337 336 335 334 333 334 335 337 339 339 340 342 345 347 347 347 346 346 346 346 345
343 345 345 345 345 345 345 347 348 349 348 348 349 349 349 349 348 348 347 347 348 347 348 348 348 347 346 345 346 348 350 349 348 348 348 346 343 340 339 337 335 336 336 336 335 333 332 332 334 336 338 340 340 341 344 347 348 348 347 346 346 345 345
342 344 345 345 345 344 345 346 347 347 348 348 349 349 349 349 349 349 349 348 348 347 347 346 347 348 349 348 346 347 350 350 350 348 349 349 347 344 342 341 338 335 336 337 338 336 334 332 333 335 339 341 342 342 343 345 346 347 348 347 346 345 344
340 342 344 344 344 344 345 345 346 346 347 348 348 349 349 349 349 349 349 349 349 348 347 346 347 348 350 350 349 349 351 351 351 350 349 350 349 347 346 346 344 341 338 339 340 342 342 341 338 337 338 342 344 344 344 344 345 345 346 347 346 345 345
339 340 342 342 342 343 343 344 345 345 346 346 346 348 348 347 348 348 347 347 348 348 348 348 348 349 350 351 351 351 352 352 351 350 350 350 351 351 350 351 350 348 345 343 342 343 344 345 344 342 341 342 344 345 346 345 344 344 345 346 346 346 346
338 339 340 340 339 338 337 337 339 340 341 342 343 344 345 345 345 345 345 346 346 347 348 348 349 349 350 350 351 351 352 352 352 352 352 351 352 353 354 354 353 351 349 347 346 346 344 343 342 342 344 344 345 346 346 345 345 345 346 346 346 347 347
336 337 339 338 336 333 331 331 331 333 335 337 339 340 341 342 343 343 344 345 346 346 347 347 348 349 349 349 349 350 351 351 352 352 352 352 353 354 354 354 354 352 351 350 349 348 347 346 344 343 345 347 347 347 347 347 346 346 346 346 346 346 347
335 337 339 338 336 334 332 330 329 329 330 332 335 337 338 339 340 340 342 342 343 345 346 346 346 347 347 348 348 349 350 350 350 350 351 352 352 352 352 352 353 352 352 351 350 349 349 349 348 347 348 349 350 349 349 349 348 348 347 346 346 345 345
334 336 338 338 337 336 335 332 329 328 327 327 328 330 332 335 337 337 338 339 340 341 342 344 345 345 344 345 346 347 348 349 350 350 350 351 351 351 351 351 351 351 351 351 351 350 350 350 349 349 349 351 352 351 350 350 349 349 349 348 347 346 344
334 335 336 336 336 336 335 333 330 328 326 323 321 322 324 328 331 333 334 334 335 336 337 340 342 342 341 342 343 343 344 346 348 349 349 350 350 351 351 351 351 350 350 350 350 350 350 350 350 349 350 351 351 351 351 351 351 350 350 349 348 347 346
332 333 333 333 334 334 333 330 327 325 322 319 317 317 318 320 323 327 329 330 332 332 332 333 335 335 336 337 337 337 339 341 343 345 346 348 349 350 350 351 351 350 350 350 351 350 350 350 350 350 350 350 350 350 351 351 350 350 349 349 348 348 347
328 329 329 329 330 330 328 326 324 322 320 317 316 316 316 315 317 319 323 327 328 328 328 329 329 329 330 332 332 332 334 335 336 338 341 344 346 347 348 348 349 351 351 351 351 351 351 351 351 351 351 351 350 350 351 350 350 350 350 349 349 349 348
326 325 326 326 326 326 325 323 322 321 320 319 318 317 315 314 314 314 316 320 322 323 323 325 326 326 327 328 330 331 331 332 331 332 334 337 340 343 343 344 347 349 350 350 351 351 351 351 352 351 351 351 351 351 350 350 350 350 349 349 348 348 347
325 325 325 325 324 324 323 322 321 321 320 318 318 317 316 315 315 314 314 314 316 317 318 320 323 324 323 323 324 327 329 329 329 330 330 331 333 337 338 338 340 344 347 349 348 348 349 350 350 351 351 351 351 351 351 351 351 351 350 349 349 348 348
325 326 325 324 323 322 321 321 320 319 318 317 317 317 316 316 315 315 314 313 313 314 314 316 319 320 320 319 318 318 320 322 324 325 327 328 330 332 333 332 333 336 339 341 342 343 345 347 347 347 348 348 349 350 351 351 351 352 352 351 351 351 351
324 323 322 321 320 319 320 319 318 318 317 317 316 316 316 315 314 314 314 313 313 312 312 312 313 314 316 317 316 314 313 314 315 317 319 322 323 325 327 327 328 332 334 336 338 338 340 341 342 343 344 345 346 347 349 349 350 350 351 352 352 352 352
320 319 319 319 318 318 318 318 318 318 317 316 315 315 314 314 314 313 313 312 312 312 311 311 311 311 312 313 313 313 312 312 312 312 315 318 319 322 328 330 332 334 336 337 338 337 336 338 340 342 343 344 345 345 346 347 348 348 349 350 351 351 352
320 319 318 318 318 318 318 318 317 316 314 313 313 313 313 313 313 312 312 312 312 312 311 310 310 310 310 310 310 311 310 310 311 312 314 318 320 325 331 335 335 337 338 338 339 338 336 337 340 342 342 343 344 344 344 344 345 346 347 347 349 349 350
321 319 318 318 319 318 318 316 314 312 312 312 311 311 311 311 311 311 311 311 311 311 311 310 310 309 309 309 309 310 310 310 310 311 313 317 319 323 329 333 335 336 336 337 338 339 337 337 339 341 340 340 340 338 335 334 335 338 340 342 345 346 347
320 320 319 319 318 317 315 314 313 312 312 312 311 311 311 311 311 311 311 311 311 310 310 310 309 309 309 309 308 309 309 309 309 309 310 313 316 319 324 328 332 333 334 334 336 337 337 337 338 338 338 337 336 331 327 327 329 330 330 332 334 335 337
319 318 318 317 316 315 314 313 313 313 312 311 311 311 311 310 310 310 311 312 312 311 311 310 310 309 309 309 308 308 308 308 308 308 309 310 312 315 319 324 328 330 331 332 333 334 335 336 336 335 334 333 331 328 325 326 328 328 327 326 325 325 326
318 318 317 316 315 314 314 313 313 312 311 311 311 311 311 311 311 310 310 311 311 311 311 310 310 310 309 309 309 308 308 308 307 308 308 308 309 312 316 321 326 329 329 329 329 330 332 333 333 332 330 328 326 325 322 322 323 324 324 323 322 321 321
318 317 317 316 315 314 314 313 312 311 311 311 311 311 311 311 311 310 310 310 310 310 310 310 310 309 309 308 308 308 308 309 308 308 308 308 308 309 311 314 320 325 327 328 328 328 329 329 330 330 328 327 325 324 322 321 320 321 322 322 320 319 319
318 317 316 315 315 314 313 313 312 311 311 311 311 311 311 311 311 311 311 311 311 310 310 310 310 309 309 309 308 308 308 308 308 308 308 308 307 307 308 308 310 313 317 321 324 326 327 328 328 327 327 327 326 325 323 322 322 323 325 325 323 320 318
317 316 316 315 314 314 313 312 311 311 311 310 310 310 310 310 310 311 311 311 311 311 311 310 310 310 310 310 310 310 310 309 309 309 308 308 308 307 307 307 308 308 309 311 314 318 322 325 326 327 327 326 326 325 323 323 323 323 325 325 323 321 320
317 316 315 314 314 313 312 311 311 311 310 310 309 308 308 309 309 310 310 311 312 311 311 311 310 310 310 310 310 311 311 311 311 311 310 310 310 309 309 308 308 308 309 308 309 310 312 316 319 322 324 324 324 323 322 320 320 320 320 320 320 320 320
Wind_Speed
30 29 30 27 25 29 34 37 39 39 39 38 37 35 34 32 30 28 26 24 23 21 20 20 19 19 19 20 21 21 21 21 21 19 17 15 13 11 11 11 11 11 11 11 10 9 9 9 10 10 10 10 10 10 9 9 8 8 8 8 7 6 6
31 30 31 28 24 25 29 33 36 38 39 38 37 35 35 33 31 29 26 24 23 21 20 20 19 19 19 20 20 21 21 21 20 19 18 16 15 13 11 12 11 11 11 11 10 9 9 9 10 10 11 11 10 10 10 9 9 9 9 8 7 7 6
31 33 33 29 26 24 24 28 32 36 38 38 37 36 36 34 32 29 27 25 23 22 21 20 19 19 19 20 21 21 21 21 21 20 18 17 16 14 12 12 12 11 11 11 10 9 9 9 10 11 11 11 11 10 9 9 9 9 9 9 8 8 7
29 33 33 30 27 24 22 23 28 32 35 37 37 37 36 35 33 30 28 26 24 23 21 20 19 19 20 21 22 22 22 21 21 20 19 17 16 15 14 13 13 12 11 11 10 10 9 9 10 11 12 12 11 10 9 9 9 9 8 9 9 8 8
22 25 26 27 28 26 23 21 23 28 32 34 36 37 37 36 35 33 30 28 26 23 21 19 19 20 21 21 21 22 22 21 21 20 19 18 17 16 16 15 14 13 12 11 11 10 10 10 11 12 12 12 11 11 10 9 9 9 9 9 9 8 8
16 18 21 26 26 24 22 21 20 22 27 32 35 36 37 37 36 34 32 30 27 25 23 22 21 20 20 21 21 22 22 21 21 21 20 19 18 18 17 16 15 14 13 12 11 11 11 12 12 12 13 12 12 11 11 10 9 9 9 9 9 9 8
15 16 18 23 24 22 23 24 22 19 20 25 30 34 36 38 38 36 33 31 29 27 26 25 23 21 20 20 21 21 21 21 21 21 21 20 20 19 18 16 15 14 13 13 12 12 13 13 12 12 12 12 12 12 11 11 10 9 10 9 9 9 9
15 15 16 17 20 21 25 29 29 25 22 22 26 31 35 36 37 36 33 31 30 29 28 27 25 22 20 19 20 20 20 21 21 21 21 21 21 21 19 18 16 14 13 13 13 13 13 13 13 13 13 13 12 12 12 11 10 10 10 10 10 10 10
16 15 15 15 16 17 19 24 28 29 28 27 25 27 31 34 36 36 35 34 32 30 29 29 28 25 22 21 20 19 19 20 21 21 22 22 22 22 21 19 17 16 14 13 13 13 14 14 14 14 13 14 13 13 12 12 11 10 10 11 11 11 11
17 15 14 14 14 15 15 17 22 25 27 29 29 27 27 28 30 33 35 35 34 32 31 31 30 28 26 24 22 21 20 20 21 21 22 23 23 23 22 21 19 18 16 15 14 14 13 14 15 15 15 15 14 13 13 12 11 10 10 11 11 12 12
17 16 14 13 12 13 13 13 15 19 24 29 30 28 25 25 26 30 33 35 35 33 32 31 31 29 28 27 26 25 23 21 21 21 22 23 24 24 23 22 22 20 19 18 17 16 15 14 15 16 16 16 15 14 13 13 12 12 11 11 11 11 12
16 15 13 11 11 13 13 12 12 16 21 25 25 25 26 27 29 31 32 32 31 31 31 30 30 29 28 27 27 27 26 24 22 21 22 23 24 24 25 24 24 23 21 20 19 18 17 16 16 17 17 17 17 16 15 14 13 13 13 12 12 11 12
16 15 15 13 11 12 14 14 13 15 17 19 20 23 27 28 28 29 29 27 25 26 27 27 28 29 28 28 28 28 28 27 24 23 22 23 23 24 25 26 25 25 23 23 22 21 20 19 19 19 19 19 18 17 16 15 14 14 13 12 11 11 12
17 16 15 14 11 10 12 14 13 10 10 11 13 18 23 24 23 24 26 27 27 27 27 26 27 28 30 31 30 28 29 28 26 24 23 22 23 24 25 26 26 25 25 24 24 23 23 22 21 20 20 20 19 18 18 17 17 16 15 13 12 12 12
17 15 15 14 13 11 12 13 11 8 5 6 7 9 12 15 18 20 21 23 24 25 27 27 26 26 27 29 29 28 28 28 26 24 23 22 23 23 24 25 25 25 25 24 24 23 23 23 22 22 22 21 20 19 19 19 19 19 18 17 15 14 13
18 17 15 14 14 14 14 13 11 9 8 7 7 7 8 8 10 13 15 16 17 19 23 27 28 26 24 25 26 25 27 28 26 25 24 23 23 23 22 23 24 24 25 24 23 22 21 21 22 22 23 22 21 20 20 20 20 20 19 19 18 17 15
21 19 18 17 17 18 18 16 14 12 12 11 10 8 6 4 2 2 5 9 11 12 15 21 26 26 23 22 22 24 26 27 25 25 24 23 23 22 22 23 23 23 23 24 24 23 22 22 22 22 23 23 22 21 20 20 20 20 20 20 20 19 18
23 21 21 20 22 22 22 21 19 16 15 14 12 11 9 8 7 7 7 4 1 3 8 14 18 19 18 18 19 21 24 27 27 27 26 25 24 23 23 24 24 23 23 23 24 24 23 23 23 22 22 22 23 22 21 20 19 19 19 20 20 21 21
24 23 23 23 25 26 26 25 24 21 19 17 15 15 14 12 11 11 11 9 7 5 6 8 9 10 11 11 12 15 18 22 24 24 24 24 24 24 25 25 25 24 24 23 24 24 24 24 24 23 22 22 23 23 22 21 20 19 20 20 21 22 23
25 24 24 24 25 26 26 27 26 24 22 20 18 17 17 16 16 16 13 11 10 10 10 11 11 9 7 7 8 10 13 16 16 17 18 19 20 22 22 23 24 24 24 24 24 24 24 24 25 24 23 22 23 24 24 23 21 21 21 21 21 22 24
25 25 24 23 24 24 24 23 24 23 23 21 19 18 18 18 18 18 17 15 14 14 13 11 10 10 11 11 11 11 11 13 14 14 15 15 16 17 17 17 20 22 23 24 24 24 25 26 25 24 24 24 25 27 27 25 24 23 23 23 22 23 24
26 25 24 23 22 22 21 20 21 20 20 20 19 18 18 16 15 17 18 18 18 18 17 14 11 10 9 9 9 9 9 10 10 11 12 13 13 13 13 14 16 18 18 19 21 22 24 25 25 24 25 26 28 30 29 28 26 25 25 24 24 24 25
24 25 24 23 22 21 20 19 19 18 17 18 19 18 17 15 13 14 16 17 18 18 17 17 15 12 11 10 9 9 9 8 7 7 9 11 11 12 13 14 15 15 14 15 17 20 21 22 23 24 25 27 30 31 30 29 27 26 26 25 25 25 26
23 23 23 22 21 21 20 18 17 16 15 16 17 17 15 13 11 12 14 15 15 16 17 17 17 15 13 12 12 11 11 10 8 6 4 4 6 9 12 11 11 12 13 13 14 15 17 18 19 20 23 25 27 28 28 28 26 25 25 25 26 26 26
23 22 21 20 19 18 17 15 14 13 12 13 14 14 13 12 11 11 12 12 11 12 14 15 15 14 13 12 11 10 11 11 11 11 8 5 1 5 9 10 9 11 12 13 12 12 13 15 16 17 20 21 22 23 23 23 23 23 23 23 24 24 25
22 21 19 18 16 15 14 12 10 9 9 10 11 10 10 10 10 10 10 10 8 8 10 12 11 10 10 10 9 8 8 8 9 10 10 8 7 4 5 7 8 10 11 12 12 11 12 13 14 14 15 16 17 17 17 17 17 18 19 20 20 21 22
21 19 18 16 15 13 11 9 6 6 6 7 8 7 7 8 8 8 8 7 6 7 8 8 7 6 6 6 6 6 6 6 6 7 7 6 5 5 4 4 3 4 7 8 8 9 10 12 11 10 11 12 12 12 12 13 13 14 15 16 17 19 19
20 18 16 15 13 10 8 6 4 4 5 6 6 6 7 7 7 7 6 5 5 5 5 4 3 3 2 2 3 4 4 4 4 4 4 3 3 2 2 4 4 3 3 4 5 7 8 8 7 8 9 10 10 10 11 12 14 14 13 13 14 16 18
19 17 16 14 12 8 5 3 3 4 5 7 8 9 9 9 8 7 6 5 4 2 2 3 3 3 3 3 3 3 3 2 2 2 1 2 2 1 1 1 3 3 4 5 5 4 5 5 5 6 7 7 7 8 9 11 13 14 14 14 15 16 17
17 16 15 13 11 8 4 1 2 5 7 9 10 10 11 11 10 9 8 7 6 4 4 4 4 4 4 4 5 4 4 3 2 2 1 0 2 3 4 4 4 4 5 5 4 4 4 5 5 4 4 3 4 4 5 7 10 11 13 15 15 14 15
18 16 13 11 9 7 4 1 4 6 8 9 10 10 10 9 9 9 8 8 7 7 6 5 5 5 5 5 5 5 5 5 4 4 4 3 3 3 5 5 5 4 4 4 4 4 4 5 5 4 2 2 2 3 5 7 8 9 11 12 13 13 14
19 17 13 10 7 4 2 3 5 6 7 8 8 8 8 8 7 7 7 7 8 8 8 7 6 5 5 5 5 5 6 6 7 7 7 7 7 6 6 6 6 6 6 5 5 5 5 6 6 5 4 3 3 3 4 6 7 8 9 10 11 11 12
19 15 11 8 4 2 2 3 5 7 8 8 7 8 8 7 7 7 7 7 8 8 8 8 8 7 6 5 5 5 6 7 7 8 9 9 10 10 10 9 9 8 9 9 9 8 8 8 8 8 7 7 6 5 5 6 6 7 8 8 9 10 10
17 12 9 6 3 1 1 3 6 7 8 7 7 8 9 8 8 8 8 8 9 9 9 8 8 8 7 6 6 6 6 7 7 8 9 10 11 12 12 13 12 12 12 12 12 12 11 11 11 11 11 10 10 11 10 10 9 9 9 9 9 9 9
13 11 10 8 5 3 2 5 6 7 8 8 8 8 9 9 9 9 8 8 8 8 8 8 7 7 7 7 7 7 7 7 7 8 9 9 9 10 11 13 14 14 13 13 14 14 14 14 14 14 13 13 13 15 15 14 13 12 12 11 11 11 10
15 14 12 10 7 4 2 5 6 7 8 8 8 8 9 9 9 7 6 6 6 6 7 7 7 7 7 7 7 8 8 8 8 9 9 10 10 10 10 11 13 14 15 15 15 15 16 16 16 16 16 15 15 16 17 17 17 16 15 14 14 14 14
14 12 10 8 6 3 2 4 5 6 7 8 8 8 9 8 7 6 5 5 5 6 6 7 7 7 7 7 7 8 8 8 8 9 9 10 11 11 10 10 11 12 14 16 17 17 18 17 18 18 19 19 18 18 17 18 18 18 18 18 18 18 17
12 10 8 7 5 3 2 3 4 5 7 8 8 8 8 7 6 5 5 5 5 5 6 7 8 8 9 10 9 9 10 10 9 9 9 10 10 10 11 11 10 10 11 13 15 16 18 19 19 19 20 20 21 21 20 19 19 19 20 20 20 20 19
Wind_Direction
196 193 190 193 198 203 207 208 208 208 209 211 213 214 215 214 214 215 216 216 217 217 217 217 217 216 217 219 218 216 214 214 214 214 214 215 217 223 230 230 227 227 226 224 224 222 219 220 226 228 228 225 221 221 226 229 232 235 238 239 240 247 248
194 193 190 192 197 199 205 209 210 210 211 212 214 215 216 216 216 217 217 218 219 220 220 221 221 221 221 221 221 219 219 218 218 218 217 217 217 219 227 231 228 226 226 226 226 224 220 221 227 230 230 228 224 223 225 228 230 233 237 240 244 251 249
191 193 193 198 201 199 201 206 209 212 214 214 215 217 218 219 219 220 220 220 221 222 223 225 226 225 223 224 224 223 222 222 221 222 221 220 219 220 227 232 229 226 226 224 227 228 224 223 227 230 231 230 229 227 229 231 231 233 235 236 240 244 241
191 193 195 203 208 205 202 203 207 211 214 217 219 219 221 222 223 222 222 223 223 224 226 228 230 228 224 224 226 227 225 224 224 224 224 224 223 224 228 232 231 230 228 225 226 229 229 228 228 229 231 232 233 233 234 236 237 238 238 238 239 237 233
191 190 192 201 209 210 206 203 205 209 213 218 222 224 224 224 224 224 223 225 226 229 231 233 234 233 229 226 228 229 228 227 226 225 225 224 225 227 229 231 233 235 234 230 228 229 232 233 233 234 235 235 237 239 238 240 243 243 242 244 245 242 236
183 185 193 202 206 208 208 205 205 209 215 218 221 224 225 225 225 225 224 225 227 229 233 235 237 237 233 229 228 229 229 229 228 227 226 224 225 228 230 232 235 237 237 235 234 234 235 237 239 240 239 238 241 242 237 238 243 246 246 249 252 253 250
165 175 190 204 208 211 215 217 219 221 221 221 222 224 225 226 227 227 226 227 229 230 232 234 236 238 236 231 228 229 229 229 230 229 228 226 226 228 230 232 235 236 238 238 238 238 239 240 243 245 244 243 243 242 235 233 241 249 252 254 257 260 260
146 157 169 188 203 212 220 224 227 229 227 225 227 226 225 225 226 226 228 231 232 232 235 237 237 237 237 234 231 230 230 230 231 231 231 230 229 230 230 231 232 234 236 238 239 240 242 243 244 247 246 244 244 243 238 237 245 253 258 260 261 261 261
139 150 161 175 188 201 213 220 223 226 226 225 226 226 225 225 225 226 229 232 233 233 235 239 240 239 238 237 235 235 235 233 232 232 232 233 233 233 233 234 234 234 235 238 240 242 244 246 246 247 247 245 246 245 243 245 249 256 263 266 266 264 263
144 156 168 176 183 190 197 205 214 221 224 223 222 221 221 220 221 224 226 229 231 234 236 240 243 243 241 240 240 240 240 239 237 234 233 233 235 236 236 237 237 238 238 239 241 244 247 248 249 249 249 248 249 249 248 249 251 255 262 267 270 268 265
145 157 163 165 172 182 185 193 209 220 224 224 221 218 216 216 219 223 226 228 231 235 238 240 243 245 245 246 245 243 243 243 242 240 236 234 235 236 238 239 240 241 242 242 242 244 247 249 250 250 251 251 252 253 253 252 252 256 261 266 271 273 270
138 146 147 146 156 168 172 178 197 213 222 224 220 216 216 218 222 225 226 228 229 232 235 238 241 244 247 250 250 248 246 245 245 244 240 236 235 236 238 240 242 243 244 245 246 247 247 247 248 249 251 252 252 252 253 254 255 257 262 267 271 274 275
133 136 134 136 149 161 164 172 189 206 220 225 223 222 223 223 224 225 226 226 226 227 231 235 239 241 243 248 251 251 247 244 243 245 244 241 237 237 238 240 242 245 246 248 249 249 249 249 249 249 250 252 252 250 250 251 254 256 259 262 266 272 274
129 132 132 133 137 145 150 160 175 190 208 218 222 229 232 231 232 231 231 231 230 229 229 231 236 239 239 241 244 248 247 244 243 245 247 246 241 239 239 239 240 243 246 250 252 252 251 251 252 252 251 251 251 251 251 251 252 254 255 256 258 264 268
122 127 129 126 122 123 129 143 156 153 151 181 202 223 233 235 237 236 236 238 237 236 235 236 238 239 236 234 236 242 244 243 242 244 247 248 246 243 243 243 242 241 243 246 250 252 253 252 252 252 251 250 250 251 252 252 252 253 255 258 258 260 264
115 117 120 115 108 107 110 121 133 129 118 132 162 195 213 222 233 237 237 238 240 238 237 239 242 242 241 238 236 238 241 242 242 243 244 246 245 242 243 246 246 244 244 245 245 248 251 252 252 251 250 249 249 251 253 254 254 255 256 260 262 263 264
113 112 111 107 102 101 103 107 114 117 113 112 124 147 162 151 146 206 219 227 235 235 231 233 236 238 241 241 237 235 239 243 244 243 242 243 244 242 243 246 247 246 246 248 247 245 245 247 250 251 252 252 251 252 254 254 255 256 259 262 265 268 268
111 110 108 106 102 100 100 100 100 100 99 99 102 105 104 104 104 94 93 112 184 228 222 226 230 233 238 240 238 236 236 239 240 240 238 239 242 243 243 244 245 243 243 246 248 248 246 244 245 248 251 254 254 254 255 255 256 258 262 266 269 271 273
110 110 111 109 105 101 98 96 94 93 94 93 91 90 91 96 99 92 89 94 95 108 149 175 194 215 231 237 236 232 231 232 234 235 236 237 242 246 246 247 247 245 244 245 246 249 250 249 248 248 249 252 255 256 256 257 260 263 266 269 271 274 276
115 116 116 113 107 102 98 94 92 92 91 91 89 88 89 90 89 90 93 100 105 109 120 127 132 140 151 157 169 190 208 219 223 227 232 237 243 246 246 249 253 253 253 252 251 251 251 250 251 251 250 252 256 259 259 259 261 265 268 271 274 276 278
122 121 120 117 112 106 102 97 95 93 90 89 88 86 85 85 88 91 92 95 97 99 105 120 129 123 120 125 130 140 166 193 207 216 225 234 241 242 241 247 254 256 258 257 255 253 251 250 250 249 249 252 256 258 260 261 263 265 268 271 274 276 277
128 125 121 120 117 112 108 103 98 96 93 90 85 80 78 80 85 89 90 91 93 92 94 105 118 115 109 110 110 111 126 154 182 198 206 213 222 226 226 232 238 241 247 251 252 253 253 254 254 253 253 255 255 256 257 258 261 264 266 268 270 273 276
128 126 123 122 119 115 111 107 103 99 94 90 85 77 73 74 79 87 90 91 93 93 91 93 95 93 90 91 89 87 95 112 140 169 188 200 206 205 204 212 222 227 231 239 246 250 252 254 256 257 256 255 255 254 255 255 258 260 262 264 266 269 273
128 126 123 122 120 116 113 110 105 98 90 85 81 73 68 67 70 79 86 88 91 94 92 90 87 84 83 83 80 77 76 80 86 93 128 193 211 206 199 197 206 215 219 226 235 243 248 250 252 253 252 251 251 251 252 253 255 257 260 262 264 266 268
133 130 127 125 123 121 118 113 104 95 86 78 73 65 58 56 56 64 74 78 84 91 90 87 84 79 77 76 75 76 72 69 67 64 63 68 108 201 207 206 205 209 216 223 227 234 240 241 242 244 246 247 247 247 249 251 253 255 258 260 262 264 265
139 139 138 135 133 128 121 115 106 97 86 76 68 56 44 40 40 46 55 58 62 75 81 81 79 77 77 74 73 75 72 70 71 68 64 63 68 101 171 201 212 216 223 229 233 237 239 237 235 237 240 243 246 247 249 252 255 258 260 261 261 262 263
144 146 145 142 139 134 126 120 108 88 73 65 57 42 27 20 19 26 36 36 35 42 55 67 73 77 82 79 71 67 67 70 74 75 76 73 67 77 93 98 130 192 214 228 238 245 248 247 246 245 244 245 246 247 249 252 254 258 263 266 265 262 260
150 150 148 143 139 137 133 124 98 58 39 30 18 5 0 356 353 359 6 7 14 23 25 29 36 43 56 59 49 50 56 62 63 66 74 76 60 39 44 56 71 105 159 200 228 247 254 254 250 249 251 253 254 254 256 258 257 256 257 260 262 260 258
155 154 152 147 142 137 127 103 57 26 11 5 357 347 341 337 332 331 329 328 336 345 337 333 333 331 331 326 332 354 13 25 34 39 55 86 100 103 101 100 111 131 155 180 204 229 242 235 229 239 252 258 263 266 268 270 269 265 259 255 256 259 257
167 161 155 151 148 142 135 98 24 17 9 1 354 346 339 332 325 320 314 310 308 299 291 294 297 300 306 308 309 313 318 322 326 320 316 191 148 155 164 166 160 163 174 183 192 198 201 204 216 239 262 278 292 295 293 289 283 276 268 261 259 260 258
183 177 169 166 164 161 155 96 36 20 9 1 355 347 340 330 321 315 308 301 297 296 297 297 294 290 290 292 293 292 288 284 277 271 268 266 247 209 193 189 186 191 198 204 210 213 209 209 218 232 253 288 320 335 334 322 309 299 290 282 276 272 269
182 185 187 186 178 163 122 45 24 12 5 4 1 353 343 329 313 305 300 296 294 294 298 305 308 305 295 283 276 272 269 267 262 257 254 256 258 255 245 233 226 224 226 229 232 233 230 230 238 249 258 267 287 326 339 327 314 312 312 308 303 300 294
175 178 180 177 164 113 60 20 9 10 11 11 8 0 351 336 316 300 289 287 289 291 295 304 310 314 313 304 286 271 263 260 258 254 249 246 247 250 253 252 251 251 249 247 247 249 249 250 254 259 263 269 278 291 311 312 299 298 305 310 313 315 313
172 171 172 174 172 154 2 357 3 8 10 11 7 358 350 342 332 317 303 295 293 294 295 297 299 302 306 307 304 295 284 274 267 262 256 250 247 247 249 250 252 257 260 260 257 255 255 259 263 265 268 274 280 288 298 303 297 289 288 293 299 301 300
179 182 189 197 206 226 286 340 359 5 5 3 358 349 342 339 335 329 320 311 303 301 299 296 296 296 295 294 296 298 299 295 288 281 275 268 260 256 254 254 254 255 258 262 264 263 261 261 264 267 271 276 281 285 291 295 294 289 283 284 289 291 288
192 196 201 203 205 219 290 342 355 360 357 350 344 340 337 337 335 334 332 324 313 309 306 302 303 304 302 300 297 295 297 299 297 295 293 288 281 273 265 262 261 260 258 256 258 263 266 267 268 270 272 276 280 283 286 289 289 287 283 282 285 287 283
205 211 211 206 210 231 322 350 351 352 349 342 338 335 336 337 335 331 332 329 325 323 318 315 316 316 315 315 313 310 309 307 305 303 301 298 295 290 281 272 266 264 264 262 259 258 261 264 268 271 273 276 277 278 281 283 284 284 283 283 284 284 281
216 225 228 234 247 273 311 329 340 346 343 340 338 338 339 338 330 323 324 325 327 330 328 326 327 325 323 322 322 321 321 319 317 314 310 306 305 304 300 292 279 267 264 265 265 264 262 262 263 265 268 271 273 274 275 276 277 279 279 280 282 282 280